Regional Weather Roundup
Issued by NWS

Home | Current Version | Previous Version | Graphics & Text | Print | Product List | Glossary On
Versions: 1 2 3 4 5 6 7 8 9 10 11 12 13 14 15 16 17 18 19 20 21 22 23 24 25 26 27 28 29 30 31 32 33 34 35 36 37 38 39 40 41 42 43 44 45 46 47 48 49 50
000
ASUS43 KMKX 170811
RWRWI

WISCONSIN REGIONAL WEATHER ROUNDUP
NATIONAL WEATHER SERVICE MILWAUKEE/SULLIVAN WI
300 AM CDT THU APR 17 2014

NOTE: "FAIR" INDICATES FEW OR NO CLOUDS BELOW 12,000 FEET WITH NO
SIGNIFICANT WEATHER AND/OR OBSTRUCTIONS TO VISIBILITY.

WIZ001-002-006>008-014>016-023>028-170900-
NORTHWEST WISCONSIN

CITY           SKY/WX    TMP DP  RH WIND       PRES   REMARKS
SUPERIOR ARPT  LGT SNOW  30  29  97 NE15G22   30.13F WCI  19
ASHLAND        LGT SNOW  28  27  96 NE16      30.10S VSB 1   WCI  16
HAYWARD        LGT SNOW  29  27  92 NE7       30.02F FOG     WCI  22
SIREN          FLURRIES  28  27  95 NE12G18   30.04S WCI  18
RICE LAKE      MIX PCPN  33  32  96 N7        29.99S WCI  27
LADYSMITH      LGT SNOW  34  33  96 E6        30.00F WCI  28
EAU CLAIRE     CLOUDY    39  36  89 NE8       29.93S WCI  33
MENOMONIE      DRIZZLE   37  37  98 NE8       29.93S WCI  31
NEW RICHMOND   CLOUDY    31  31 100 N15       29.98S WCI  20
OSCEOLA        CLOUDY    30  29  96 N7        30.04R WCI  23
$$

WIZ003>005-009-010-017-018-170900-
NORTH CENTRAL WISCONSIN

CITY           SKY/WX    TMP DP  RH WIND       PRES   REMARKS
WOODRUFF       LGT SNOW  32  30  92 SE13      30.03F VSB 3/4 WCI  22
RHINELANDER    SNOW      30  28  92 E17       30.05F VSB 1/2 WCI  18
EAGLE RIVER    SNOW      30  29  99 E12       30.07F VSB 1/2 WCI  20
LAND O LAKES   LGT SNOW  30  28  94 SE10G18   30.09F VSB 1   WCI  21
PHILLIPS       LGT SNOW  31  31  96 E7        30.00F VSB 1   WCI  25
TOMAHAWK       LGT SNOW  31  30  95 E3        30.02F VSB 1
MEDFORD        LGT SNOW  32  31  96 E12       29.97F WCI  23
MERRILL        LGT SNOW  32  32  99 CALM      30.02F
$$

WIZ029-030-035-036-043>047-170900-
CENTRAL WISCONSIN

CITY           SKY/WX    TMP DP  RH WIND       PRES   REMARKS
WAUSAU         LGT SNOW  33  31  92 E18G29    29.98F FOG     WCI  22
MOSINEE        CLOUDY    34  34 100 E14G21    30.00F WCI  24
MARSHFIELD     CLOUDY    39  30  70 SE14      29.96F WCI  31
STEVENS POINT  CLOUDY    36  29  73 E15G22    30.00F WCI  27
WAUPACA        CLOUDY    41  30  65 E14       30.05F
WAUTOMA        CLOUDY    42  29  60 SE12      30.02F
WISC RAPIDS    CLOUDY    41  28  60 SE9       29.99F
CAMP DOUGLAS   MOCLDY    45  30  56 SE13G18   29.95S
$$

WIZ011>013-019>022-031-037>040-048>050-170900-
NORTHEAST WISCONSIN

CITY           SKY/WX    TMP DP  RH WIND       PRES   REMARKS
ANTIGO         LGT SNOW  31  29  94 SE18G24   30.06F WCI  19
STURGEON BAY   CLOUDY    37  27  65 SE17G25   30.18F WCI  28
GREEN BAY      CLOUDY    39  29  67 SE20G25   30.13F WCI  29
MANITOWOC      CLOUDY    38  30  73 SE17      30.17F WCI  28
APPLETON       LGT RAIN  36  32  87 SE21G28   30.10F WCI  24
CLINTONVILLE   LGT RAIN  36  32  87 SE12G22   30.11S WCI  27
OSHKOSH        CLOUDY    40  28  62 SE14      30.07F WCI  32
$$

WIZ032>034-041-042-053>061-170900-
SOUTHWEST WISCONSIN

CITY           SKY/WX    TMP DP  RH WIND       PRES   REMARKS
LA CROSSE      CLOUDY    50  28  42 S20G28    29.87F
SPARTA         LGT RAIN  45  32  62 SE17G25   29.91F
VIROQUA        FAIR      44  29  55 S15G23    29.89F
BOSCOBEL       CLOUDY    48  28  46 S7        29.94S
PRAIRIE DU CHI CLOUDY    48  27  43 S13G21    29.91F
PLATTEVILLE    FAIR      45  29  52 S20G28    29.97R
$$

WIZ056-057-062-063-064-067-068-170900-
SOUTH CENTRAL WISCONSIN

CITY           SKY/WX    TMP DP  RH WIND       PRES   REMARKS
BARABOO/DELLS  CLOUDY    43  28  55 S15G25    29.97F
LONE ROCK      CLOUDY    46  30  53 SE12G26   29.97S
WATERTOWN      CLOUDY    42  27  56 SE12      30.06F
MADISON        CLOUDY    44  28  53 SE20G25   30.01F
MIDDLETON      CLOUDY    46  27  47 S17G25    30.00F
MONROE         CLOUDY    41  30  64 SE12G18   30.00F
JANESVILLE     CLOUDY    45  27  49 SE17G23   30.05F
$$

WIZ051-052-058>065-066-070>072-170900-
SOUTHEAST WISCONSIN

CITY           SKY/WX    TMP DP  RH WIND       PRES   REMARKS
MILWAUKEE      CLOUDY    41  28  60 SE16G25   30.14S
WAUKESHA       CLOUDY    37  28  70 SE12      30.11F WCI  30
MILWAUKEE/TIMM CLOUDY    41  27  56 SE9       30.12F
RACINE         MOCLDY    39  29  67 SE15      30.15F WCI  31
BURLINGTON     MOCLDY    41  26  55 SW10      30.10F
KENOSHA        CLOUDY    41  29  62 SE16      30.13F
FOND DU LAC    CLOUDY    40  28  62 SE17      30.07F WCI  31
SHEBOYGAN      CLOUDY    38  29  70 SE15G25   30.15F WCI  29
WEST BEND      CLOUDY    37  28  70 SE7G18    30.11S WCI  32
JUNEAU         CLOUDY    40  25  54 SE15      30.07F WCI  32
$$

LSZ147-162-170900-
LAKE SUPERIOR

STATION/POSITION TIME  TEMP    WIND        PRES    WAVE
                       AIR SEA DIR/SP/G            HT/PER
                 (UTC) (F)     (DEG/KT/KT) (MB)    (FT/S)
DEVILS ISLAND    0800   30      60/ 32/ 39 1021.5F
PORT WING        0710   29      50/ 23/ 26 1020.0F
SAXON HARBOR     0700           50/ 11/ 15 1019.3F
$$

LMZ867-665-643>646-170900-
LAKE MICHIGAN

STATION/POSITION TIME  TEMP    WIND        PRES    WAVE
                       AIR SEA DIR/SP/G            HT/PER
                 (UTC) (F)     (DEG/KT/KT) (MB)    (FT/S)
NORTHPORT PIER   0700   35     100/ 12/ 16 1023.7F
SISTER BAY       0723   38     150/  9/ 15   N/A
SHEBOYGAN LAKESH 0800   38     130/ 25/ 28 1021.4F
PORT WASHINGTON  0740   38     150/ 13/ 18 1021.3F
MILWAUKEE LAKESH 0700   39     150/ 15/ 18   N/A
KENOSHA   LAKESH 0800   39     150/ 21/ 22   N/A
$$

TC  - TEMPERATURE IN CELSIUS
VSB - VISIBILITY IN STATUTE MILES
WCI - WIND CHILL INDEX
HX  - HEAT INDEX




USA.gov is the U.S. government's official web portal to all federal, state and local government web resources and services.